Weather History for Chipley, FL

Change the Weather History Date:

Sunday, August 17, 2014

  Actual Average (KMAI) Record (KMAI)
Temperature  
Mean Temperature 84 °F 82 °F  
Max Temperature 91 °F 91 °F 98 °F (2011)
Min Temperature 78 °F 72 °F 70 °F (2011)
Degree Days  
Heating Degree Days 0    
Month to date heating degree days  
Since 1 June heating degree days  
Since 1 July heating degree days  
Cooling Degree Days 20    
Month to date cooling degree days  
Year to date cooling degree days  
Since 1 June cooling degree days  
Growing Degree Days 34 (Base 50)    
Moisture  
Dew Point 72 °F    
Average Humidity 67    
Maximum Humidity 74    
Minimum Humidity 55    
Precipitation  
Precipitation 0.01 in 0.17 in 3.45 in (2013)
Month to date precipitation 3.38  
Year to date precipitation 36.28  
Sea Level Pressure  
Sea Level Pressure 30.04 in    
Wind  
Wind Speed 5 mph (SSW)    
Max Wind Speed 17 mph    
Max Gust Speed 24 mph    
Visibility 10 miles    
Events      
T = Trace of Precipitation, MM = Missing Value Source: NWS Daily Summary

Daily Weather History Graph

Daily Weather History Graph

Search for Another Location

Airport:

Trip Planner

Search our weather history database for the weather conditions in past years. The results will help you decide how hot, cold, wet, or windy it might be!

Date:

Astronomy

Aug. 17, 2014 Rise Set
Actual Time 6:09 AM CDT 7:22 PM CDT
Civil Twilight 5:44 AM CDT 7:47 PM CDT
Nautical Twilight 5:14 AM CDT 8:17 PM CDT
Astronomical Twilight 4:43 AM CDT 8:48 PM CDT
Moon No Moon Rise 1:23 PM CDT (8/17)
Length of Visible Light 14h 03m
Length of Day
13h 12m
Waning Gibbous, 48% of the Moon is Illuminated
Aug 17
Waning Gibbous
Aug 25
New
Sep 2
First Quarter
Sep 8
Full
Sep 15
Last Quarter

Hourly Weather History & Observations

Time (CDT) Temp. Heat Index Dew Point Humidity Pressure Visibility Wind Dir Wind Speed Gust Speed Precip Events Conditions
12:15 AM 84.2 °F 90.9 °F 73.4 °F 70% 30.04 in 10.0 mi SSW 4.6 mph - N/A   Clear
12:35 AM 84.2 °F 90.9 °F 73.4 °F 70% 30.03 in 10.0 mi South 5.8 mph - N/A   Clear
12:55 AM 84.2 °F 90.9 °F 73.4 °F 70% 30.03 in 10.0 mi SSW 5.8 mph - N/A   Clear
1:15 AM 84.2 °F 90.9 °F 73.4 °F 70% 30.02 in 10.0 mi South 4.6 mph - N/A   Clear
1:35 AM 84.2 °F 90.9 °F 73.4 °F 70% 30.02 in 10.0 mi South 5.8 mph - N/A   Clear
1:55 AM 84.2 °F 90.9 °F 73.4 °F 70% 30.02 in 10.0 mi SSW 6.9 mph - N/A   Clear
2:15 AM 84.2 °F 90.9 °F 73.4 °F 70% 30.01 in 10.0 mi South 3.5 mph - N/A   Clear
2:35 AM 84.2 °F 90.9 °F 73.4 °F 70% 30.01 in 10.0 mi SSW 8.1 mph - N/A   Clear
2:55 AM 84.2 °F 90.9 °F 73.4 °F 70% 30.01 in 10.0 mi SSW 4.6 mph - N/A   Clear
3:15 AM 84.2 °F 90.9 °F 73.4 °F 70% 30.02 in 10.0 mi SSW 5.8 mph - N/A   Clear
3:35 AM 84.2 °F 90.9 °F 73.4 °F 70% 30.01 in 10.0 mi SSW 5.8 mph - N/A   Clear
3:55 AM 84.2 °F 90.9 °F 73.4 °F 70% 30.02 in 10.0 mi SSW 4.6 mph - N/A   Clear
4:15 AM 84.2 °F 90.9 °F 73.4 °F 70% 30.02 in 10.0 mi SSW 4.6 mph - N/A   Clear
4:35 AM 82.4 °F 88.2 °F 73.4 °F 74% 30.02 in 10.0 mi SSW 5.8 mph - N/A   Clear
4:55 AM 82.4 °F 88.2 °F 73.4 °F 74% 30.03 in 10.0 mi Calm Calm - N/A   Clear
5:15 AM 82.4 °F 88.2 °F 73.4 °F 74% 30.03 in 10.0 mi SW 4.6 mph - N/A   Clear
5:35 AM 82.4 °F 88.2 °F 73.4 °F 74% 30.04 in 10.0 mi SW 3.5 mph - N/A   Clear
5:55 AM 82.4 °F 88.2 °F 73.4 °F 74% 30.04 in 10.0 mi SSW 3.5 mph - N/A   Clear
6:15 AM 82.4 °F 88.2 °F 73.4 °F 74% 30.05 in 10.0 mi SSW 4.6 mph - N/A   Clear
6:35 AM 82.4 °F 88.2 °F 73.4 °F 74% 30.05 in 10.0 mi SSW 3.5 mph - N/A   Clear
6:55 AM 82.4 °F 88.2 °F 73.4 °F 74% 30.05 in 10.0 mi SSW 4.6 mph - N/A   Clear
7:15 AM 82.4 °F 88.2 °F 73.4 °F 74% 30.06 in 10.0 mi SSW 4.6 mph - N/A   Clear
7:35 AM 82.4 °F 88.2 °F 73.4 °F 74% 30.05 in 10.0 mi South 5.8 mph - N/A   Clear
7:55 AM 84.2 °F 90.9 °F 73.4 °F 70% 30.06 in 10.0 mi SSW 5.8 mph - N/A   Clear
8:15 AM 86.0 °F 93.4 °F 73.4 °F 66% 30.05 in 10.0 mi SSW 6.9 mph - N/A   Clear
8:35 AM 86.0 °F 93.4 °F 73.4 °F 66% 30.06 in 10.0 mi SSW 9.2 mph - N/A   Partly Cloudy
8:55 AM 86.0 °F 93.4 °F 73.4 °F 66% 30.06 in 10.0 mi SW 9.2 mph - N/A   Mostly Cloudy
9:15 AM 87.8 °F 95.6 °F 73.4 °F 62% 30.07 in 10.0 mi SW 8.1 mph - N/A   Mostly Cloudy
9:35 AM 87.8 °F 95.6 °F 73.4 °F 62% 30.07 in 10.0 mi SW 6.9 mph - N/A   Mostly Cloudy
9:55 AM 87.8 °F 95.6 °F 73.4 °F 62% 30.08 in 10.0 mi SW 8.1 mph - N/A   Scattered Clouds
10:15 AM 87.8 °F 95.6 °F 73.4 °F 62% 30.07 in 10.0 mi SW 5.8 mph - N/A   Scattered Clouds
10:35 AM 89.6 °F 98.2 °F 73.4 °F 59% 30.07 in 10.0 mi WSW 8.1 mph - N/A   Mostly Cloudy
10:55 AM 89.6 °F 98.2 °F 73.4 °F 59% 30.06 in 10.0 mi SSW 11.5 mph 20.7 mph N/A   Scattered Clouds
11:15 AM 91.4 °F 100.1 °F 73.4 °F 55% 30.06 in 10.0 mi SW 6.9 mph - N/A   Mostly Cloudy
11:35 AM 91.4 °F 100.1 °F 73.4 °F 55% 30.06 in 10.0 mi SW 8.1 mph - N/A   Mostly Cloudy
11:55 AM 91.4 °F 100.1 °F 73.4 °F 55% 30.06 in 10.0 mi SSW 13.8 mph 20.7 mph N/A   Mostly Cloudy
12:15 PM 82.4 °F 86.3 °F 69.8 °F 66% 30.08 in 10.0 mi SW 17.3 mph 24.2 mph N/A   Overcast
12:35 PM 80.6 °F 83.9 °F 69.8 °F 70% 30.08 in 10.0 mi WNW 5.8 mph 16.1 mph N/A   Overcast
12:55 PM 80.6 °F 83.2 °F 68.0 °F 65% 30.07 in 10.0 mi West 6.9 mph - N/A   Scattered Clouds
1:15 PM 80.6 °F 83.2 °F 68.0 °F 65% 30.07 in 10.0 mi Calm Calm - N/A   Scattered Clouds
1:35 PM 80.6 °F 82.7 °F 66.2 °F 61% 30.07 in 10.0 mi Calm Calm - N/A   Partly Cloudy
1:55 PM 78.8 °F - 68.0 °F 69% 30.06 in 10.0 mi SW 3.5 mph - N/A   Mostly Cloudy
2:15 PM 80.6 °F 83.9 °F 69.8 °F 70% 30.06 in 10.0 mi SSW 5.8 mph - N/A   Partly Cloudy
2:35 PM 80.6 °F 83.2 °F 68.0 °F 65% 30.04 in 10.0 mi Calm Calm - N/A   Clear
2:55 PM 82.4 °F 86.3 °F 69.8 °F 66% 30.04 in 10.0 mi SSW 3.5 mph - N/A   Clear
3:15 PM 82.4 °F 86.3 °F 69.8 °F 66% 30.04 in 10.0 mi South 4.6 mph - N/A   Clear
3:35 PM 82.4 °F 86.3 °F 69.8 °F 66% 30.05 in 10.0 mi WSW 4.6 mph - N/A   Clear
3:55 PM 84.2 °F 88.4 °F 69.8 °F 62% 30.05 in 10.0 mi WSW 3.5 mph - N/A   Clear
4:15 PM 84.2 °F 88.4 °F 69.8 °F 62% 30.05 in 10.0 mi Calm Calm - N/A   Clear
4:35 PM 86.0 °F 90.4 °F 69.8 °F 58% 30.04 in 10.0 mi SSW 4.6 mph - N/A   Clear
5:15 PM 87.8 °F 93.8 °F 71.6 °F 58% 30.03 in 10.0 mi West 3.5 mph - N/A   Clear
5:35 PM 87.8 °F 93.8 °F 71.6 °F 58% 30.03 in 10.0 mi Calm Calm - N/A   Scattered Clouds
5:55 PM 89.6 °F 98.2 °F 73.4 °F 59% 30.03 in 10.0 mi West 4.6 mph - N/A   Partly Cloudy
6:15 PM 87.8 °F 93.8 °F 71.6 °F 58% 30.03 in 10.0 mi WSW 3.5 mph - N/A   Clear
6:35 PM 86.0 °F 91.8 °F 71.6 °F 62% 30.03 in 10.0 mi SW 3.5 mph - N/A   Clear
6:55 PM 84.2 °F 89.6 °F 71.6 °F 66% 30.04 in 10.0 mi SSW 12.7 mph 16.1 mph N/A   Scattered Clouds
7:15 PM 82.4 °F 86.3 °F 69.8 °F 66% 30.04 in 10.0 mi South 5.8 mph - 0.01 in   Mostly Cloudy
7:35 PM 78.8 °F - 69.8 °F 74% 30.04 in 10.0 mi SSW 4.6 mph - 0.01 in   Scattered Clouds
7:55 PM 80.6 °F 83.9 °F 69.8 °F 70% 30.02 in 10.0 mi South 5.8 mph - 0.01 in   Clear
8:15 PM 80.6 °F 83.2 °F 68.0 °F 65% 30.02 in 10.0 mi SSE 4.6 mph - N/A   Clear
8:35 PM 80.6 °F 83.9 °F 69.8 °F 70% 30.02 in 10.0 mi South 5.8 mph - N/A   Clear
8:55 PM 80.6 °F 84.6 °F 71.6 °F 74% 30.03 in 10.0 mi South 3.5 mph - N/A   Clear
9:15 PM 82.4 °F 87.2 °F 71.6 °F 70% 30.03 in 10.0 mi South 4.6 mph - N/A   Clear
9:35 PM 82.4 °F 87.2 °F 71.6 °F 70% 30.04 in 10.0 mi South 3.5 mph - N/A   Clear
9:55 PM 82.4 °F 87.2 °F 71.6 °F 70% 30.04 in 10.0 mi South 3.5 mph - N/A   Clear
10:15 PM 82.4 °F 87.2 °F 71.6 °F 70% 30.04 in 10.0 mi South 4.6 mph - N/A   Clear
10:35 PM 82.4 °F 87.2 °F 71.6 °F 70% 30.04 in 10.0 mi South 5.8 mph - N/A   Clear
10:55 PM 82.4 °F 87.2 °F 71.6 °F 70% 30.05 in 10.0 mi South 4.6 mph - N/A   Clear
11:15 PM 82.4 °F 87.2 °F 71.6 °F 70% 30.04 in 10.0 mi South 4.6 mph - N/A   Clear
11:35 PM 82.4 °F 87.2 °F 71.6 °F 70% 30.04 in 10.0 mi South 5.8 mph - N/A   Clear
11:55 PM 80.6 °F 84.6 °F 71.6 °F 74% 30.03 in 10.0 mi South 5.8 mph - N/A   Clear